Location: Bruneau Dunes Observatory
(42.9024°N, 115.6902°W)
Time: 14:30:15
(UTC-06:00)

Daily predictions for brighter satellites

Satellite Brightness Start Highest point End
(mag) Time Altitude Azimuth Time Altitude Azimuth Time Altitude Azimuth
YAOGAN 6 3.1 21:36:34 10° SE 21:40:06 44° ENE 21:43:36 10° N
Cosmos 2369 Rocket 2.3 21:34:54 10° S 21:40:23 54° ESE 21:45:55 10° NNE
SJ-11-01 4.4 21:35:57 10° SSE 21:40:39 68° ENE 21:45:20 10° N
Cosmos 1606 4.0 21:38:31 10° NNE 21:41:40 24° ENE 21:44:48 10° SE
Cosmos 1937 Rocket 4.1 21:39:51 10° SSW 21:44:56 64° WNW 21:50:04 10° NNE
Meteor 1-29 3.7 21:44:30 10° NNE 21:47:42 33° E 21:50:52 10° SSE
Cosmos 2221 Rocket 4.1 21:43:30 10° N 21:47:46 43° ENE 21:52:01 10° SSE
USA 186 3.2 21:46:43 10° SSW 21:49:12 32° W 21:51:53 10° NNW
GPS 2-04 Rocket1 3.8 21:46:58 10° WSW 21:50:09 26° S 21:53:12 10° SE
Cosmos 1346 Rocket 3.1 21:48:10 10° NNW 21:52:07 70° W 21:56:06 10° S
TIMED 4.5 21:49:05 10° S 21:53:24 66° ESE 21:57:46 10° NNE
Lacrosse 5 rocket 0.9 21:50:32 10° SW 21:54:06 74° SE 21:57:44 10° NE
H-2A R/B 3.6 21:52:08 10° ESE 21:56:10 22° ENE 22:00:09 10° NNE
COSMOS 2455 2.9 21:51:08 10° SSW 21:57:09 85° ESE 22:03:12 10° NNE
Molniya-1 1.8 21:55:28 10° SSW 21:57:11 72° SE 21:58:45 10° NE
Helios 1A 3.0 21:53:34 10° SSE 21:57:44 83° ENE 22:01:59 10° NNW
ATLAS 5 CENTAUR R/B 2.8 21:52:36 10° NNW 21:58:24 53° NE 22:04:25 11° SE
Aureole 3 2.8 22:00:20 10° S 22:03:15 48° E 22:06:10 10° NNE
Cosmos 1939 Rocket 3.5 22:01:55 10° S 22:06:00 59° W 22:10:04 10° NNW
ISS -3.3 22:03:41 10° WSW 22:06:55 61° NNW 22:10:08 10° NE
Cosmos 1408 3.0 22:03:43 10° SSE 22:07:16 45° E 22:10:52 10° NNE
Cosmos 1634 Rocket 4.1 22:02:19 10° N 22:08:40 86° W 22:14:59 10° S
ERS-1 Rocket 3.2 22:03:47 10° SSE 22:08:42 57° ENE 22:13:39 10° N
Tiangong 2 3.1 22:09:25 10° WSW 22:11:43 18° SSW 22:13:47 11° SSE
ARGOS 3.6 22:10:23 12° SE 22:15:00 45° ENE 22:20:05 10° N
Meteor 1-27 Rocket 4.3 22:09:56 10° N 22:15:24 43° ENE 22:19:49 15° SE
CZ-4B DEB 2.7 22:13:40 10° S 22:16:34 72° WSW 22:19:30 10° NNW
Meteor 1-10 Rocket 4.3 22:11:09 10° N 22:17:08 75° E 22:23:00 10° SSE
Terra 3.8 22:16:30 10° E 22:19:13 15° ENE 22:21:56 10° NNE
Resurs 01 Rocket 4.2 22:16:25 10° SW 22:19:34 19° W 22:22:45 10° NW
Cosmos 1048 Rocket 4.1 22:14:16 10° NNW 22:19:36 71° ENE 22:24:01 15° SSE
Meteor 2-6 Rocket 4.4 22:15:53 10° N 22:21:52 75° E 22:27:38 11° SSE
Cosmos 1825 2.1 22:21:15 10° S 22:25:01 72° E 22:28:48 10° NNE
Okean 1-7 3.3 22:24:11 10° NNW 22:28:34 68° W 22:32:55 10° S
USA 215 3.4 22:25:19 15° ESE 22:30:55 73° NE 22:37:28 10° NW
Cosmos 1782 3.0 22:27:52 10° NNW 22:31:52 72° W 22:35:30 12° S
SPOT 5 3.2 22:36:06 18° SSE 22:40:01 64° ENE 22:45:15 10° N
Cosmos 2279 Rocket 4.1 22:34:51 10° N 22:41:08 82° W 22:47:10 11° S
Cosmos 2251 Rocket 4.4 22:40:42 10° N 22:45:28 34° ENE 22:48:10 21° ESE
Cosmos 372 Rocket 4.0 22:40:32 10° SSW 22:45:40 80° WNW 22:50:49 10° NNE
MetOp-A 4.2 22:42:39 15° S 22:47:13 77° WSW 22:52:35 10° NNW
Cosmos 2227 Rocket 4.3 22:44:48 10° N 22:47:55 15° NE 22:51:02 10° ENE
Cosmos 1862 3.2 22:50:16 17° S 22:53:19 88° E 22:57:19 10° N
CENTAUR R/B 2.8 22:47:45 10° SW 22:53:48 71° NW 23:00:46 10° NNE
SPOT 1/Viking Rocket 3.6 22:51:11 24° SSE 22:54:15 65° ENE 22:59:26 10° N
Helios 1B rocket 4.4 22:50:48 10° N 22:54:25 30° WNW 22:58:00 10° SW
Cosmos 2219 4.0 22:50:42 10° NNW 22:56:06 39° ENE 22:59:07 23° ESE
Cosmos 1733 Rocket 2.9 22:54:41 22° S 22:57:25 73° E 23:01:46 10° NNE
Intercosmos 25 Rocket 4.3 22:50:22 10° N 22:57:41 66° ENE 23:00:10 28° SSE
Cosmos 1943 Rocket 2.6 22:52:43 10° SW 22:58:15 63° WNW 23:03:46 10° NNE
Cosmos 1269 Rocket 4.5 22:53:09 10° NNW 22:58:20 58° WSW 23:02:02 19° S
Cosmos 1340 3.3 22:55:13 10° NNW 22:58:55 51° W 23:01:16 20° SSW
Cosmos 1125 Rocket 4.4 22:56:31 10° SW 23:01:36 49° WNW 23:06:41 10° N
Lacrosse 4 Rocket 2.0 23:00:44 10° NW 23:05:08 55° WSW 23:07:15 28° S
Cosmos 1346 4.0 23:05:25 10° N 23:07:26 31° NE 23:07:26 31° NE
Nimbus 7 Rocket 4.3 23:04:45 10° NNE 23:10:39 72° ESE 23:14:53 19° S
Sich 1 Rocket 4.1 23:11:41 37° ESE 23:12:33 41° E 23:16:43 10° NNE
GEOS 3 Rocket 4.2 23:11:26 26° ESE 23:14:05 49° NE 23:19:07 10° NNW
ATLAS CENTAUR R/B 2.1 23:15:10 33° E 23:15:10 33° E 23:17:59 10° NE
Cosmos 405 Rocket 4.1 23:14:03 10° NNE 23:17:05 24° ENE 23:17:08 24° ENE
Gbstr 26 Del rocket 4.4 23:15:16 10° NW 23:19:26 32° NNE 23:22:05 16° ENE
SL-08 RB Rocket 4.3 23:17:13 25° S 23:19:49 55° W 23:24:24 10° NNW
Cosmos 1975 Rocket 4.1 23:17:52 10° NNE 23:21:53 31° ENE 23:22:32 30° E
Cosmos 2369 Rocket 4.5 23:20:06 10° WSW 23:24:45 25° NW 23:29:26 10° N
Meteor 2-20 4.4 23:21:20 24° S 23:25:16 84° E 23:31:24 10° N
Meteor 2-20 Rocket 4.4 23:23:36 30° SSE 23:26:41 68° E 23:32:46 10° NNE
Cosmos 494 Rocket 3.9 23:22:40 10° NNW 23:27:56 87° WSW 23:29:49 41° SSE
Cosmos 1867 3.5 23:25:10 10° NW 23:30:40 85° WSW 23:32:34 42° SSE
CARTOSAT-1 3.5 23:30:28 52° SE 23:31:24 71° ENE 23:35:44 10° N
Lacrosse 5 rocket 3.9 23:31:00 10° WNW 23:33:40 19° NNW 23:36:25 10° NNE
Cosmos 1674 Rocket 3.9 23:29:41 10° NNW 23:33:57 57° W 23:35:25 37° SSW
Cosmos 1378 Rocket 3.5 23:29:45 10° N 23:34:13 77° E 23:35:07 55° SSE
H-2A R/B 2.6 23:32:21 26° SSW 23:35:11 54° W 23:40:25 10° NNW
Cosmos 2026 Rocket 4.0 23:36:08 38° SSE 23:38:21 60° E 23:44:31 10° NNE
Milstar 3 3.9 23:30:04 10° WSW 23:38:23 29° S 23:39:07 29° S
Landsat 7 4.0 23:39:41 40° SSW 23:41:15 66° WSW 23:46:01 10° NNW
Cosmos 1441 Rocket 4.4 23:38:16 10° N 23:41:24 29° ENE 23:41:24 29° ENE
Cosmos 2297 Rocket 3.6 23:38:03 10° N 23:42:54 28° NE 23:45:04 22° E
ATLAS 5 CENTAUR R/B 3.6 23:37:38 10° NW 23:43:00 33° WSW 23:45:58 23° SSW
ISS -1.1 23:41:22 10° WNW 23:43:51 20° N 23:46:21 10° NE
CZ-4B R/B 4.1 23:39:44 10° NNE 23:44:06 35° E 23:44:06 35° E
Cosmos 2344 4.0 23:37:01 10° SW 23:44:36 66° NW 23:53:20 10° NE
Okean 3 3.6 23:43:52 10° NNW 23:48:01 65° W 23:48:42 55° SW
H-2A R/B 1.9 23:47:58 63° E 23:48:11 65° ENE 23:52:17 10° N
IGS 5A 3.4 23:49:29 65° SSW 23:49:58 76° WSW 23:54:09 10° NNW
APEX 4.3 23:46:19 10° NNW 23:50:24 33° NE 23:50:39 33° ENE
CZ-2C R/B 4.5 23:51:44 22° E 23:52:42 23° ENE 23:56:31 10° NNE
Cosmos 1656 Rocket 4.5 23:49:19 10° SW 23:54:36 49° WNW 00:00:00 10° NNE
